Wind_Speed
24 24 25 25 25 25 24 24 24 24 23 22 23 23 22 23 24 25 25 26 26 27 27 28 29 31 32 34 35 36 37 37 37 38 36 35 35 36
24 24 24 24 24 23 23 23 23 23 22 21 22 23 23 23 23 23 24 24 25 26 27 28 28 29 31 32 34 34 35 36 37 37 37 35 35 36
23 23 23 23 23 23 22 22 22 22 22 21 20 21 22 22 23 23 23 23 24 25 26 27 28 27 28 29 31 32 34 35 35 35 36 35 35 35
22 22 22 22 22 21 20 20 20 21 21 21 21 21 22 22 22 23 22 22 23 24 25 25 26 27 27 27 28 30 31 33 34 34 35 35 35 35
21 21 21 21 20 19 18 18 19 20 21 20 20 20 20 21 22 22 22 22 22 23 24 25 24 26 27 26 27 28 30 31 33 34 35 35 36 36
19 19 18 18 19 18 18 18 18 19 19 19 19 19 18 19 20 20 21 21 21 21 22 23 23 23 24 25 26 27 29 30 31 32 33 34 35 36
19 18 18 18 18 19 19 18 18 18 18 19 18 18 17 18 18 19 20 20 20 20 20 21 22 23 23 23 23 24 26 28 29 30 32 33 33 33
18 18 17 18 18 18 18 18 18 18 18 18 17 17 17 17 18 19 19 19 19 20 20 20 21 21 22 22 22 24 25 26 27 28 29 29 29 29
18 17 17 17 18 17 17 18 18 18 18 18 18 18 17 18 18 18 19 19 19 19 20 20 20 20 21 22 23 24 24 24 25 27 28 29 29 29
18 18 18 18 18 17 17 18 18 17 18 18 18 18 18 18 18 18 19 19 19 19 19 19 19 20 20 21 21 22 23 23 24 25 27 28 29 29
17 17 18 18 18 17 17 17 17 17 17 17 17 17 17 17 17 18 18 18 18 18 18 19 19 19 20 20 21 22 23 24 24 24 25 27 29 29
17 17 17 17 17 17 17 17 17 17 17 16 16 16 17 17 17 18 18 18 18 18 18 19 19 19 19 20 20 21 22 23 24 25 26 27 28 28
17 17 17 17 17 17 17 16 17 17 17 16 16 16 16 16 17 17 17 17 18 18 19 20 20 20 20 20 21 22 23 23 24 26 27 27 28 28
17 18 18 18 18 18 17 17 17 17 17 17 17 17 17 16 16 16 16 17 18 18 19 19 20 20 21 22 22 23 24 25 25 26 27 28 27 28
18 19 18 18 18 18 18 17 17 17 18 18 18 18 17 17 17 17 17 18 19 19 19 19 20 21 22 22 23 24 24 25 26 27 27 28 28 27
19 19 19 19 19 19 19 18 18 18 18 18 18 18 17 17 17 17 18 18 18 19 19 20 21 22 22 22 23 24 25 25 26 27 27 28 28 27
19 19 19 19 19 19 19 20 19 19 19 19 19 18 18 18 18 18 18 18 19 19 19 19 20 21 21 22 23 24 24 25 25 26 27 27 28 28
19 19 20 20 20 19 20 20 21 20 20 20 20 19 19 18 18 19 19 19 19 19 19 20 20 21 21 22 23 23 24 24 25 26 27 28 28 29
19 20 20 21 20 20 21 21 21 21 21 21 21 20 20 19 19 19 20 19 19 19 20 20 21 21 21 22 22 23 24 24 25 26 27 28 29 29
20 21 21 21 21 22 23 23 22 22 22 22 21 21 21 20 20 20 21 20 20 20 21 21 22 22 23 23 23 23 24 25 25 26 27 27 28 29
21 21 22 22 23 23 23 23 23 23 22 21 22 22 22 21 21 20 21 21 21 20 21 21 21 22 22 23 23 23 24 25 25 26 27 28 28 28
22 23 23 24 24 24 24 24 23 23 22 22 23 23 22 22 21 21 21 21 21 20 20 20 21 21 21 21 22 22 23 25 25 26 26 26 26 27
22 23 24 24 24 23 23 23 24 24 23 23 23 22 22 21 22 22 22 22 21 21 20 20 20 20 21 21 22 22 22 23 24 25 25 26 27 27
Wind_Direction
301 299 298 296 294 292 293 291 290 290 287 282 279 277 275 272 269 269 268 265 263 260 258 254 250 249 249 248 246 245 244 244 245 245 245 245 245 244
302 301 298 296 295 294 292 289 290 291 288 284 281 278 275 274 270 268 267 265 265 261 258 254 251 250 249 247 246 245 245 246 246 245 246 245 245 246
302 302 299 297 297 296 292 289 288 289 290 286 282 279 278 276 270 268 268 266 264 263 259 255 252 252 250 248 248 246 246 246 246 245 245 246 247 248
305 303 302 300 299 297 294 293 291 290 289 287 283 279 278 275 273 270 269 269 267 265 261 257 255 254 252 250 249 248 246 245 244 244 246 247 247 247
309 307 306 305 302 300 298 296 294 292 291 289 285 281 278 276 274 274 272 272 270 266 262 259 259 256 252 250 249 247 246 244 244 245 247 248 249 249
316 314 312 309 306 303 301 300 298 297 296 292 290 285 281 278 276 275 274 274 271 268 265 260 260 258 253 249 248 246 246 244 243 245 247 249 250 250
319 316 313 309 306 305 304 305 305 303 300 296 294 289 285 281 279 277 274 273 271 268 266 261 259 257 255 250 247 244 245 245 244 245 246 248 249 250
318 314 313 312 310 307 306 307 307 304 302 300 297 293 287 282 280 278 277 273 271 268 265 263 261 257 254 251 249 249 247 246 244 245 246 248 250 249
324 321 318 316 315 311 309 308 309 307 303 301 297 295 290 284 281 279 278 276 273 269 266 263 260 256 254 252 251 250 250 249 248 248 250 251 252 251
326 326 323 321 316 313 311 311 312 310 306 302 298 295 291 287 281 277 277 277 276 272 268 264 261 259 256 254 253 251 251 250 250 251 252 252 252 252
331 331 328 326 321 318 316 314 313 313 312 308 304 300 295 291 286 282 282 282 278 274 269 265 263 261 258 256 254 253 252 251 252 252 252 253 252 252
333 333 334 332 327 321 318 316 315 314 314 311 306 303 299 294 290 286 283 282 280 276 271 268 265 264 262 258 256 256 256 255 256 255 253 254 255 255
334 335 335 334 332 329 326 322 319 318 316 314 311 309 306 300 296 293 288 286 282 277 274 272 270 266 263 260 259 259 259 258 257 256 255 256 257 257
337 338 338 339 338 335 331 329 328 326 325 322 317 313 308 304 299 295 292 289 286 283 280 276 272 270 267 264 262 262 261 260 259 258 258 259 260 259
337 338 338 339 338 336 334 332 330 328 325 322 319 316 313 309 304 298 294 292 290 287 283 278 274 273 273 269 266 264 263 262 262 261 260 261 260 259
337 337 335 336 336 334 333 332 330 329 326 323 321 317 313 309 304 300 295 291 286 282 281 279 277 274 272 269 267 267 265 263 262 262 262 261 259 258
339 338 338 337 335 334 335 334 329 327 326 325 322 321 317 311 307 304 299 293 288 286 282 280 279 276 273 271 270 268 268 267 266 263 262 262 261 260
341 339 339 338 336 334 333 332 331 328 327 325 323 320 318 313 310 307 302 297 291 287 285 282 281 278 275 273 273 272 268 268 267 265 264 262 261 260
339 338 336 336 334 334 334 333 331 329 328 326 324 320 317 314 311 308 306 301 295 290 288 287 285 281 278 276 274 272 270 269 268 266 265 263 262 261
338 337 337 336 335 333 332 331 330 328 327 325 324 322 318 315 313 308 305 303 298 294 292 288 284 281 279 278 276 274 271 271 271 268 267 266 265 264
339 339 339 337 336 334 333 332 330 329 327 326 326 325 322 318 315 312 310 307 304 299 295 292 289 285 283 280 278 276 274 275 275 272 269 267 265 264
338 337 337 336 336 335 334 334 333 332 330 327 325 325 324 321 317 315 313 310 308 304 299 294 291 289 287 284 283 280 276 274 273 272 271 270 268 266
337 336 335 334 334 334 336 335 335 334 331 327 325 325 324 322 320 317 316 314 310 305 303 299 294 292 290 288 287 285 281 277 276 274 271 270 270 269
Height
5726 5724 5722 5719 5717 5716 5714 5713 5712 5711 5711 5710 5709 5709 5709 5709 5709 5709 5709 5710 5710 5711 5713 5714 5716 5718 5720 5723 5727 5730 5733 5737 5740 5744 5748 5751 5755 5758
5720 5718 5716 5714 5712 5710 5709 5708 5706 5705 5705 5704 5703 5702 5702 5702 5702 5703 5703 5703 5704 5704 5706 5707 5708 5710 5712 5715 5718 5721 5724 5727 5731 5735 5738 5742 5745 5749
5714 5712 5710 5708 5706 5705 5703 5702 5701 5700 5699 5698 5697 5696 5696 5696 5696 5696 5696 5697 5697 5698 5698 5700 5701 5702 5704 5707 5709 5712 5715 5719 5722 5725 5729 5733 5736 5739
5710 5708 5705 5703 5701 5699 5698 5697 5696 5694 5693 5693 5692 5691 5690 5690 5690 5690 5690 5690 5691 5691 5692 5693 5694 5695 5697 5699 5701 5704 5707 5710 5713 5717 5720 5724 5727 5730
5706 5704 5701 5699 5697 5695 5693 5692 5691 5689 5688 5687 5686 5685 5684 5683 5683 5683 5684 5684 5684 5684 5685 5686 5687 5688 5690 5691 5694 5696 5699 5702 5705 5708 5711 5715 5718 5721
5702 5700 5697 5695 5693 5691 5689 5688 5686 5684 5683 5681 5680 5679 5678 5678 5677 5677 5678 5677 5678 5678 5678 5679 5680 5681 5683 5684 5686 5688 5691 5694 5696 5700 5702 5706 5709 5711
5699 5696 5694 5692 5689 5687 5685 5683 5681 5680 5678 5676 5675 5674 5673 5672 5672 5672 5672 5672 5672 5672 5672 5673 5673 5675 5676 5677 5679 5681 5684 5686 5688 5691 5694 5697 5699 5702
5696 5693 5691 5688 5686 5684 5682 5679 5677 5675 5673 5672 5670 5669 5668 5667 5666 5666 5666 5666 5666 5666 5666 5667 5667 5668 5669 5671 5673 5675 5677 5678 5681 5683 5685 5688 5690 5692
5693 5690 5688 5685 5682 5680 5678 5675 5673 5671 5669 5667 5665 5664 5663 5662 5661 5660 5660 5660 5660 5660 5660 5660 5661 5662 5663 5665 5666 5668 5669 5671 5673 5675 5677 5680 5682 5684
5690 5687 5684 5681 5678 5676 5674 5671 5669 5667 5664 5662 5660 5659 5657 5656 5655 5655 5654 5654 5654 5653 5653 5654 5655 5656 5657 5658 5659 5661 5662 5664 5665 5667 5669 5671 5673 5675
5688 5684 5681 5678 5675 5672 5670 5668 5665 5663 5660 5658 5655 5654 5652 5651 5650 5649 5649 5648 5648 5648 5648 5648 5649 5649 5650 5651 5652 5654 5655 5656 5658 5659 5661 5663 5664 5666
5685 5682 5678 5675 5672 5669 5666 5664 5662 5659 5656 5654 5652 5650 5648 5646 5645 5644 5643 5643 5642 5642 5642 5642 5642 5643 5644 5645 5646 5647 5648 5649 5650 5652 5653 5654 5656 5657
5683 5679 5676 5672 5669 5666 5663 5660 5658 5655 5652 5650 5648 5645 5643 5641 5640 5639 5638 5637 5637 5636 5636 5636 5636 5636 5637 5639 5639 5640 5640 5641 5642 5643 5644 5645 5647 5648
5681 5677 5674 5670 5667 5664 5661 5657 5654 5651 5649 5646 5644 5641 5639 5637 5635 5634 5633 5632 5631 5631 5630 5629 5630 5630 5630 5631 5632 5632 5632 5633 5634 5635 5636 5637 5638 5639
5678 5674 5671 5668 5665 5661 5658 5655 5651 5648 5645 5643 5640 5637 5635 5632 5630 5629 5628 5627 5626 5625 5624 5623 5623 5623 5623 5623 5624 5624 5625 5625 5625 5626 5627 5628 5629 5630
5675 5672 5668 5665 5662 5658 5655 5652 5648 5645 5642 5639 5636 5633 5630 5628 5626 5624 5623 5621 5620 5619 5618 5617 5616 5616 5615 5615 5615 5616 5616 5617 5617 5617 5618 5619 5620 5621
5672 5669 5665 5662 5658 5655 5652 5648 5645 5641 5638 5635 5632 5629 5626 5624 5621 5619 5617 5615 5614 5613 5612 5611 5609 5608 5607 5607 5607 5607 5608 5608 5608 5608 5609 5610 5611 5612
5669 5666 5662 5658 5655 5651 5648 5644 5641 5637 5634 5631 5627 5624 5621 5619 5616 5613 5611 5609 5607 5606 5604 5603 5602 5601 5601 5600 5600 5599 5599 5599 5599 5599 5600 5601 5602 5602
5666 5663 5659 5655 5651 5648 5644 5640 5637 5633 5629 5626 5622 5619 5616 5613 5610 5608 5605 5603 5601 5599 5597 5595 5594 5593 5593 5592 5592 5591 5590 5590 5590 5590 5590 5591 5592 5593
5663 5660 5656 5652 5648 5644 5640 5636 5632 5629 5625 5621 5617 5614 5610 5607 5604 5602 5599 5596 5594 5592 5590 5588 5587 5585 5584 5584 5583 5583 5581 5581 5581 5581 5581 5581 5582 5582
5660 5656 5652 5648 5644 5640 5636 5632 5628 5624 5620 5616 5612 5608 5605 5602 5599 5596 5593 5590 5587 5585 5583 5581 5579 5578 5576 5575 5575 5574 5573 5572 5572 5572 5572 5572 5572 5572
5657 5653 5649 5644 5640 5636 5631 5627 5623 5618 5614 5611 5607 5603 5600 5596 5593 5590 5587 5584 5581 5578 5576 5574 5572 5570 5569 5567 5566 5565 5565 5564 5563 5562 5562 5562 5562 5563
5653 5649 5645 5640 5636 5631 5627 5622 5618 5614 5610 5605 5602 5598 5594 5591 5588 5584 5581 5578 5575 5572 5569 5567 5565 5563 5561 5560 5558 5557 5556 5555 5554 5554 5553 5553 5553 5553